Thomasville, GA

1:37 AM EDT on September 22, 2019 (GMT -0400)
Thomasville Municipal

Weather History for KTVI - August, 2019

Change the Weather History Date:

Sunday, August 25, 2019

  Actual Average (KVLD) Record (KVLD)
Temperature  
Mean Temperature 80 °F 81 °F  
Max Temperature 86 °F 91 °F 100 °F (2011)
Min Temperature 73 °F 71 °F 67 °F (1997)
Degree Days  
Heating Degree Days 0    
Month to date heating degree days  
Since 1 June heating degree days  
Since 1 July heating degree days  
Cooling Degree Days 14    
Month to date cooling degree days  
Year to date cooling degree days  
Since 1 June cooling degree days  
Growing Degree Days 30 (Base 50)    
Moisture  
Dew Point 73 °F    
Average Humidity 86    
Maximum Humidity 100    
Minimum Humidity 66    
Precipitation  
Precipitation 0.00 in 0.17 in 0.51 in (1948)
Month to date precipitation 4.41  
Year to date precipitation 36.10  
Sea Level Pressure  
Sea Level Pressure 30.01 in    
Wind  
Wind Speed 4 mph ()    
Max Wind Speed 10 mph    
Max Gust Speed 16 mph    
Visibility 9.2 miles    
Events Rain    
T = Trace of Precipitation, MM = Missing Value Source: Averaged Metar Reports

Daily Weather History Graph

Daily Weather History Graph

Search for Another Location

Airport or City:

Astronomy

Aug. 25, 2019 Rise Set
Actual Time 7:07 AM EDT 8:07 PM EDT
Civil Twilight 6:42 AM EDT 8:32 PM EDT
Nautical Twilight 6:13 AM EDT 9:01 PM EDT
Astronomical Twilight 5:42 AM EDT 9:31 PM EDT
Moon 1:53 AM EDT (8/25) 4:13 PM EDT (8/25)
Length of Visible Light 13h 49m
Length of Day
12h 59m
Waning Crescent, 29% of the Moon is Illuminated
Aug 25
Waning Crescent
Aug 30
New
Sep 5
First Quarter
Sep 14
Full
Sep 21
Last Quarter

Hourly Weather History & Observations

Time (EDT) Temp. Heat Index Dew Point Humidity Pressure Visibility Wind Dir Wind Speed Gust Speed Precip Events Conditions
12:15 AM 75.2 °F - 73.4 °F 94% 30.04 in 10.0 mi Calm Calm - N/A   Clear
12:35 AM 73.4 °F - 73.4 °F 100% 30.04 in 10.0 mi Calm Calm - N/A   Clear
12:55 AM 73.4 °F - 73.4 °F 100% 30.03 in 10.0 mi Calm Calm - N/A   Clear
1:15 AM 73.4 °F - 73.4 °F 100% 30.02 in 10.0 mi Calm Calm - N/A   Scattered Clouds
1:35 AM 73.4 °F - 73.4 °F 100% 30.01 in 10.0 mi Calm Calm - N/A   Scattered Clouds
1:55 AM 73.4 °F - 73.4 °F 100% 29.99 in 10.0 mi Calm Calm - N/A   Clear
2:15 AM 73.4 °F - 73.4 °F 100% 29.99 in 10.0 mi NW 3.5 mph - N/A   Clear
2:35 AM 73.4 °F - 73.4 °F 100% 29.98 in 10.0 mi Calm Calm - N/A   Clear
2:55 AM 73.4 °F - 71.6 °F 94% 29.98 in 10.0 mi North 4.6 mph - N/A   Clear
3:15 AM 73.4 °F - 71.6 °F 94% 29.97 in 10.0 mi North 3.5 mph - N/A   Clear
3:35 AM 73.4 °F - 73.4 °F 100% 29.97 in 10.0 mi Calm Calm - N/A   Mostly Cloudy
3:55 AM 73.4 °F - 73.4 °F 100% 29.97 in 10.0 mi Calm Calm - N/A   Scattered Clouds
4:35 AM 73.4 °F - 73.4 °F 100% 29.97 in 10.0 mi Calm Calm - N/A   Mostly Cloudy
4:55 AM 73.4 °F - 73.4 °F 100% 29.97 in 10.0 mi ENE 3.5 mph - N/A   Overcast
5:15 AM 73.4 °F - 73.4 °F 100% 29.97 in 7.0 mi Calm Calm - N/A   Overcast
5:35 AM 73.4 °F - 73.4 °F 100% 29.97 in 7.0 mi ENE 3.5 mph - N/A   Overcast
5:55 AM 75.2 °F - 73.4 °F 94% 29.98 in 4.0 mi ENE 4.6 mph - N/A   Overcast
6:15 AM 75.2 °F - 73.4 °F 94% 29.99 in 3.0 mi ENE 4.6 mph - N/A   Overcast
6:35 AM 75.2 °F - 73.4 °F 94% 29.99 in 4.0 mi East 6.9 mph - N/A   Overcast
6:55 AM 75.2 °F - 73.4 °F 94% 30.00 in 7.0 mi ENE 4.6 mph - N/A   Overcast
7:15 AM 75.2 °F - 73.4 °F 94% 30.01 in 10.0 mi NE 4.6 mph - N/A   Overcast
7:35 AM 75.2 °F - 73.4 °F 94% 30.01 in 7.0 mi ENE 10.4 mph - N/A   Overcast
7:55 AM 75.2 °F - 73.4 °F 94% 30.01 in 7.0 mi ENE 9.2 mph - N/A   Overcast
8:15 AM 75.2 °F - 73.4 °F 94% 30.02 in 7.0 mi ENE 8.1 mph - N/A   Overcast
8:35 AM 75.2 °F - 73.4 °F 94% 30.02 in 10.0 mi ENE 6.9 mph - N/A   Overcast
8:55 AM 75.2 °F - 73.4 °F 94% 30.03 in 10.0 mi ENE 9.2 mph - N/A   Overcast
9:15 AM 77.0 °F - 73.4 °F 89% 30.04 in 10.0 mi ENE 8.1 mph - N/A   Overcast
9:35 AM 77.0 °F - 73.4 °F 89% 30.04 in 10.0 mi ENE 8.1 mph - N/A   Overcast
9:55 AM 77.0 °F - 73.4 °F 89% 30.04 in 10.0 mi ENE 8.1 mph - N/A   Overcast
10:15 AM 75.2 °F - 73.4 °F 94% 30.05 in 10.0 mi ENE 6.9 mph - N/A   Overcast
10:35 AM 77.0 °F - 73.4 °F 89% 30.05 in 10.0 mi East 8.1 mph - N/A   Overcast
10:55 AM 77.0 °F - 73.4 °F 89% 30.06 in 10.0 mi East 6.9 mph - N/A   Overcast
11:15 AM 78.8 °F - 73.4 °F 83% 30.06 in 10.0 mi ENE 5.8 mph - N/A   Overcast
11:35 AM 78.8 °F - 73.4 °F 83% 30.06 in 10.0 mi East 4.6 mph - N/A   Overcast
11:55 AM 80.6 °F 85.4 °F 73.4 °F 79% 30.05 in 10.0 mi ENE 6.9 mph - N/A   Overcast
12:15 PM 80.6 °F 85.4 °F 73.4 °F 79% 30.05 in 10.0 mi ESE 6.9 mph - N/A   Overcast
12:35 PM 82.4 °F 88.2 °F 73.4 °F 74% 30.04 in 10.0 mi SSE 5.8 mph - N/A   Overcast
12:55 PM 82.4 °F 88.2 °F 73.4 °F 74% 30.04 in 10.0 mi SE 5.8 mph - N/A   Overcast
1:15 PM 82.4 °F 87.2 °F 71.6 °F 70% 30.04 in 10.0 mi ESE 9.2 mph - N/A   Overcast
1:35 PM 86.0 °F 93.4 °F 73.4 °F 66% 30.03 in 10.0 mi SSE 6.9 mph - N/A   Overcast
1:55 PM 86.0 °F 93.4 °F 73.4 °F 66% 30.03 in 10.0 mi ENE 5.8 mph - N/A   Overcast
2:15 PM 82.4 °F 87.2 °F 71.6 °F 70% 30.03 in 7.0 mi ENE 4.6 mph - N/A   Overcast
2:55 PM 84.2 °F 89.6 °F 71.6 °F 66% 30.01 in 10.0 mi East 4.6 mph - N/A   Mostly Cloudy
3:15 PM 86.0 °F 93.4 °F 73.4 °F 66% 30.00 in 10.0 mi ENE 9.2 mph - N/A   Mostly Cloudy
3:35 PM 84.2 °F 90.9 °F 73.4 °F 70% 29.99 in 10.0 mi SE 6.9 mph - N/A   Overcast
3:55 PM 82.4 °F 88.2 °F 73.4 °F 74% 29.99 in 10.0 mi East 4.6 mph - N/A   Overcast
4:15 PM 80.6 °F 86.2 °F 75.2 °F 84% 29.98 in 2.5 mi Calm Calm - N/A Rain Rain
4:35 PM 84.2 °F 92.3 °F 75.2 °F 74% 29.97 in 10.0 mi East 5.8 mph - N/A   Mostly Cloudy
4:55 PM 82.4 °F 88.2 °F 73.4 °F 74% 29.96 in 10.0 mi ENE 8.1 mph - N/A   Scattered Clouds
5:15 PM 84.2 °F 90.9 °F 73.4 °F 70% 29.97 in 5.0 mi East 6.9 mph - N/A   Haze
5:35 PM 86.0 °F 93.4 °F 73.4 °F 66% 29.98 in 10.0 mi ENE 6.9 mph - N/A   Scattered Clouds
5:55 PM 86.0 °F 93.4 °F 73.4 °F 66% 29.97 in 10.0 mi ENE 9.2 mph - N/A   Mostly Cloudy
6:15 PM 86.0 °F 93.4 °F 73.4 °F 66% 29.96 in 10.0 mi ENE 9.2 mph - N/A   Scattered Clouds
6:35 PM 84.2 °F 90.9 °F 73.4 °F 70% 29.96 in 10.0 mi ENE 10.4 mph - N/A   Scattered Clouds
6:55 PM 82.4 °F 88.2 °F 73.4 °F 74% 29.96 in 10.0 mi ENE 9.2 mph - N/A   Clear
7:15 PM 80.6 °F 85.4 °F 73.4 °F 79% 29.96 in 10.0 mi ENE 9.2 mph - N/A   Clear
7:35 PM 80.6 °F 85.4 °F 73.4 °F 79% 29.96 in 10.0 mi ENE 9.2 mph - N/A   Clear
7:55 PM 78.8 °F - 73.4 °F 83% 29.98 in 10.0 mi ENE 8.1 mph - N/A   Clear
8:15 PM 78.8 °F - 73.4 °F 83% 29.98 in 10.0 mi East 9.2 mph - N/A   Clear
8:35 PM 77.0 °F - 73.4 °F 89% 29.99 in 10.0 mi ENE 5.8 mph - N/A   Clear
8:55 PM 77.0 °F - 71.6 °F 83% 30.01 in 10.0 mi East 6.9 mph - N/A   Clear
9:15 PM 77.0 °F - 71.6 °F 83% 30.02 in 10.0 mi ENE 9.2 mph 16.1 mph N/A   Clear
9:35 PM 77.0 °F - 71.6 °F 83% 30.02 in 10.0 mi East 8.1 mph - N/A   Clear
9:55 PM 75.2 °F - 71.6 °F 89% 30.03 in 10.0 mi ENE 6.9 mph - N/A   Clear
10:15 PM 75.2 °F - 71.6 °F 89% 30.04 in 10.0 mi East 5.8 mph - N/A   Clear
10:35 PM 75.2 °F - 71.6 °F 89% 30.04 in 10.0 mi East 3.5 mph - N/A   Clear
10:55 PM 73.4 °F - 71.6 °F 94% 30.04 in 10.0 mi Calm Calm - N/A   Clear
11:15 PM 73.4 °F - 71.6 °F 94% 30.04 in 10.0 mi NE 3.5 mph - N/A   Clear
11:35 PM 73.4 °F - 71.6 °F 94% 30.04 in 10.0 mi Calm Calm - N/A   Clear
11:55 PM 73.4 °F - 71.6 °F 94% 30.04 in 10.0 mi East 3.5 mph - N/A   Clear